Location: Springville
(37.3745°N, 89.2676°W)
Time: 14:53:11
(UTC+00:00)

OAO 2 Rocket - Pass Details

Date: 29 October 2020
Orbit: 676 x 746 km, 35.0° (Epoch: 03 December)

Event Time Altitude Azimuth Distance (km) Brightness Sun altitude
Rises 23:34:55 0° 257° (WSW) 3,077 9.4 -7.2°
Reaches altitude 10° 23:37:21 10° 254° (WSW) 2,149 7.6 -7.7°
Maximum altitude 23:42:19 64° 174° (S) 759 3.5 -8.7°
Enters shadow 23:46:56 12° 93° (E) 2,013 5.1 -9.6°
